Location: Roland
(31.1349°N, 85.4372°W)
Time: 16:17:46
(UTC+00:00)

Explorer 7 - Visible Passes

Search period start: 11 April 2021 00:00
Search period end: 21 April 2021 00:00
Orbit: 484 x 677 km, 50.3° (Epoch: 10 April)

Date Brightness Start Highest point End Pass type
(mag) Time Alt. Az. Time Alt. Az. Time Alt. Az.
11 Apr 9.2 10:42:40 10° NNW 10:46:52 28° NE 10:51:05 10° E visible
12 Apr 10.1 09:08:12 10° N 09:09:54 12° NNE 09:11:36 10° NE visible
12 Apr 8.5 10:46:51 10° NNW 10:51:29 43° NE 10:56:08 10° ESE visible
13 Apr 9.9 09:11:53 10° N 09:14:45 16° NNE 09:17:39 10° ENE visible
13 Apr 7.7 10:51:11 10° NW 10:56:01 69° NE 11:00:53 10° SE visible
14 Apr 9.6 09:15:51 10° NNW 09:19:31 21° NNE 09:23:15 10° E visible
15 Apr 9.0 09:19:57 10° NNW 09:24:12 31° NE 09:28:31 10° E visible
16 Apr 8.2 00:58:10 10° SSE 01:00:46 17° SE 01:01:21 17° ESE visible
16 Apr 9.3 02:37:01 10° WSW 02:37:50 15° WSW 02:37:50 15° WSW visible
16 Apr 10.1 07:46:50 12° NNE 07:47:19 12° NNE 07:49:12 10° NE visible
16 Apr 8.2 09:24:10 10° NW 09:28:47 47° NE 09:33:30 10° ESE visible
17 Apr 7.5 01:01:33 10° SSW 01:05:02 31° SE 01:08:25 11° ENE visible
17 Apr 8.8 02:41:59 10° W 02:44:53 27° NW 02:44:53 27° NW visible
17 Apr 9.9 07:52:26 16° NNE 07:52:26 16° NNE 07:55:10 10° ENE visible
17 Apr 7.3 09:28:50 12° NW 09:33:17 78° NE 09:38:11 10° SE visible
18 Apr 6.7 01:05:33 10° SSW 01:09:22 61° SE 01:13:26 10° NE visible
18 Apr 9.4 02:47:16 10° WNW 02:50:12 19° NNW 02:51:33 16° N visible
18 Apr 9.7 07:58:44 18° ENE 07:58:44 18° ENE 08:00:42 10° E visible
18 Apr 7.1 09:35:11 27° WNW 09:37:43 63° SW 09:42:32 10° SSE visible
19 Apr 7.0 01:09:55 10° SW 01:13:48 71° NW 01:17:56 10° NE visible
19 Apr 9.9 02:53:00 10° NW 02:54:59 13° NNW 02:57:00 10° N visible
19 Apr 10.0 08:05:37 11° E 08:05:37 11° E 08:05:54 10° ESE visible
19 Apr 7.7 09:42:06 36° SW 09:42:06 36° SW 09:46:32 10° SSE visible
20 Apr 8.2 01:14:38 10° WSW 01:18:19 39° NW 01:22:13 10° NNE visible
20 Apr 9.2 09:49:15 13° S 09:49:15 13° S 09:50:01 10° S visible
